Location: Conteville
(50.7443°N, 1.7322°E)
Time: 03:45:37
(UTC+00:00)

Daily predictions for brighter satellites

Satellite Brightness Start Highest point End
(mag) Time Altitude Azimuth Time Altitude Azimuth Time Altitude Azimuth
USA 215 4.0 03:20:56 10° E 03:25:43 49° ENE 03:25:43 49° ENE
Cosmos 1943 Rocket 2.9 04:06:38 47° SE 04:07:18 50° ESE 04:12:46 10° NE
CZ-2C R/B 3.8 04:05:13 10° SE 04:10:16 40° ENE 04:13:24 21° N
CENTAUR R/B 2.8 04:16:08 53° S 04:17:20 63° SE 04:24:24 10° NE
Cosmos 2297 4.0 04:21:07 53° SSE 04:22:10 64° ESE 04:27:51 10° NE
NOSS 3-2 (A) 3.3 04:27:49 78° S 04:28:13 84° SE 04:34:52 10° NE
Cosmos 2278 Rocket 3.6 04:33:50 26° N 04:33:50 26° N 04:36:42 10° NNE
Envisat 4.1 04:29:57 10° NNE 04:34:48 43° E 04:39:36 10° S
NOSS 3-2 (C) 3.8 04:33:35 36° S 04:35:51 60° SE 04:42:16 10° NE
SKYMED 2 4.2 04:32:41 10° SSE 04:36:55 55° ENE 04:37:12 54° NE
Cosmos 2098 Rocket 4.5 04:39:04 10° SSE 04:42:45 38° E 04:47:22 10° NNE
Meteor 2-3 Rocket 3.7 04:37:33 10° S 04:43:13 85° E 04:49:00 10° NNE
Cosmos 968 Rocket 3.8 04:42:39 19° S 04:46:21 65° ESE 04:51:27 10° NNE
Landsat 5 4.3 04:42:11 10° SSE 04:46:35 55° ENE 04:48:26 32° N
Cosmos 921 Rocket 3.3 04:50:35 62° SSE 04:50:35 62° SSE 04:54:18 10° SSE
DNEPR-1 R/B 3.8 04:53:14 64° NNW 04:53:56 77° NE 04:59:21 10° SE
Meteor 1-26 Rocket 4.2 04:53:50 41° NNW 04:55:55 68° W 05:01:40 10° S
Cosmos 1812 3.1 04:56:57 60° SE 04:56:57 60° SE 05:00:12 10° SSE
H-2A R/B 4.1 04:53:52 10° ESE 04:57:24 26° ENE 05:01:01 10° N
Cosmos 1151 Rocket 3.1 05:01:35 38° N 05:03:13 79° E 05:07:36 10° SSE
USA 238 DEB 3.5 05:00:10 29° SW 05:03:52 89° NW 05:10:51 10° NE
USA 238 3.5 05:00:13 28° SW 05:03:58 90° WSW 05:10:58 10° NE
Cosmos 2344 3.5 05:03:34 37° WSW 05:06:45 66° NW 05:14:56 10° NE
Cosmos 1766 Rocket 4.2 05:03:13 10° S 05:07:26 54° E 05:11:41 10° NNE
USA 215 3.2 05:03:54 10° SE 05:10:24 67° SW 05:13:03 38° WNW
Kosmos-917 3.6 05:12:30 77° W 05:12:39 81° NW 05:17:55 10° NE
Meteor 1-31 Rocket 3.0 05:09:27 10° NNE 05:13:21 69° ESE 05:17:14 10° S
Cosmos 2279 Rocket 3.9 05:07:30 10° N 05:13:45 86° E 05:19:57 10° S
Cosmos 2297 Rocket 4.3 05:09:48 10° NNW 05:13:54 20° NE 05:17:59 10° E
Cosmos 1328 Rocket 3.6 05:12:41 18° N 05:15:53 76° ENE 05:20:15 10° SSE
IRAS Rocket 4.5 05:13:20 10° SSE 05:18:47 68° ENE 05:24:15 10° NNW
SJ-12 3.8 05:14:37 10° NNE 05:18:47 78° WNW 05:22:55 10° SSW
FALCON 9 DEB 3.1 05:21:07 69° S 05:21:17 71° SSE 05:24:41 10° ENE
Cosmos 2369 Rocket 2.2 05:16:12 10° SSW 05:21:47 81° ESE 05:27:25 10° NNE
Cosmos 1862 3.4 05:19:46 10° S 05:23:42 75° E 05:27:40 10° NNE
COSMO-SKYMED 1 2.6 05:20:46 10° S 05:25:00 52° W 05:25:48 45° WNW
H-2A R/B 2.6 05:23:06 10° N 05:26:46 61° WNW 05:30:27 10° SSW
Cosmos 1634 Rocket 4.1 05:22:40 10° NNW 05:28:44 51° W 05:34:43 10° SSW
Lacrosse 4 Rocket 4.0 05:34:14 10° N 05:36:02 12° NNE 05:37:52 10° NE
CZ-4B R/B 4.0 05:32:41 10° NNE 05:36:06 39° E 05:39:28 10° S
Tsikada Rocket 4.3 05:33:20 10° SW 05:39:08 40° WNW 05:45:04 10° N
CZ-4B R/B 3.4 05:38:08 10° SE 05:41:00 27° ENE 05:43:50 10° N
MOS 1-B Rocket 4.5 05:35:47 10° SSW 05:41:28 36° W 05:44:44 20° NW
YAOGAN 6 3.9 05:38:22 10° N 05:40:14 25° NNW 05:40:14 25° NNW
Cosmos 783 Rocket 4.5 05:37:36 15° NNW 05:41:58 88° ENE 05:47:11 10° SSE
Cosmos 1408 Rocket 4.1 05:38:35 10° S 05:42:49 60° E 05:47:04 10° NNE
Cosmos 1656 Rocket 3.6 05:40:01 10° SSW 05:45:26 88° ESE 05:50:56 10° NNE
Gblst 52 Del rocket 4.5 05:41:33 24° W 05:45:32 88° NNW 05:52:37 10° E
CZ-4C R/B 3.0 05:42:55 10° S 05:45:56 43° W 05:46:01 43° W
Cosmos 1503 Rocket 4.2 05:40:42 10° SSW 05:45:58 75° ESE 05:51:19 10° NNE
DMSP B5D2-2 4.0 05:41:12 10° SSE 05:46:25 85° WSW 05:51:41 10° NNW
Cosmos 2227 Rocket 4.0 05:44:56 10° NNW 05:49:27 23° NE 05:53:55 10° E
CZ-2C R/B 3.2 05:45:32 10° SSW 05:50:36 38° W 05:54:54 14° NNW
Cosmos 1943 Rocket 2.7 05:48:15 22° W 05:51:15 37° NW 05:56:29 10° NNE
Cosmos 1486 Rocket 4.0 05:48:24 10° SW 05:53:39 62° WNW 05:58:54 10° NNE
Cosmos 1515 Rocket 3.4 05:51:50 10° NNW 05:56:13 77° W 06:00:33 10° S
SL-8 R/B 4.4 05:54:22 22° W 05:57:00 43° SSW 06:01:30 10° SE
Meteor 2-15 4.4 05:51:23 10° NNW 05:57:26 69° W 06:03:25 10° S
FALCON 9 DEB 2.8 05:56:51 40° WNW 05:57:38 58° N 06:00:30 10° ENE
Cosmos 2180 Rocket 4.5 05:52:57 10° NNW 05:59:01 60° W 06:05:02 10° S
Meteor 1-27 Rocket 3.7 05:53:31 10° NNW 05:59:10 89° E 06:04:54 10° S
COSMOS 2487 3.5 06:00:03 10° N 06:03:15 41° ENE 06:06:27 10° SE
Cosmos 773 Rocket 3.9 05:58:38 11° NNW 06:03:37 71° WSW 06:08:46 10° SSE
FALCON 9 DEB 2.9 06:03:16 33° WNW 06:04:14 52° N 06:07:03 10° ENE
FALCON 9 DEB 2.9 06:05:16 31° WNW 06:06:18 51° N 06:09:06 10° ENE
Cosmos 2297 4.5 06:03:08 17° W 06:06:46 31° NW 06:11:50 10° NNE
SJ 16-02 2.5 06:03:06 10° S 06:07:18 47° ESE 06:11:31 10° NNE
NOAA 11 4.1 06:02:10 10° NNE 06:07:38 73° WNW 06:13:06 10° SSW
CENTAUR R/B 3.1 06:03:21 16° W 06:08:23 46° NNW 06:15:41 10° NE
Alouette 2 Rocket 3.4 06:05:37 10° NNW 06:09:44 76° ENE 06:13:16 10° SSE
NOAA 12 4.2 06:07:30 10° NNE 06:12:50 85° ESE 06:18:05 10° SSW
Envisat 3.6 06:09:12 10° N 06:13:42 32° WNW 06:18:10 10° SW
Meteor 2-19 Rocket 4.4 06:07:50 10° SSW 06:13:54 81° WNW 06:20:00 10° N
Cosmos 1340 Rocket 3.2 06:11:40 10° S 06:15:34 66° E 06:19:33 10° NNE
SL-27 R/B 2.6 06:14:04 15° NW 06:16:55 53° WSW 06:20:23 10° S
Cosmos 2278 Rocket 4.0 06:15:42 12° NW 06:17:17 13° NNW 06:19:56 10° N
Cosmos 1500 Rocket 3.7 06:14:34 10° S 06:19:01 81° E 06:23:32 10° NNE
Cosmos 1939 Rocket 2.8 06:15:27 10° NNE 06:19:26 88° ESE 06:23:19 10° SSW
NOSS 3-2 (A) 4.2 06:15:14 15° W 06:19:48 37° NNW 06:26:16 10° NE
FALCON 9 DEB 2.9 06:21:30 19° WNW 06:23:18 52° N 06:26:09 10° ENE
Cosmos 2098 Rocket 4.1 06:20:29 10° WSW 06:23:59 26° WNW 06:28:14 10° N
NOSS 3-2 (C) 3.9 06:21:24 10° W 06:27:02 44° NNW 06:33:39 10° NE
Cosmos 968 Rocket 4.5 06:24:25 10° WSW 06:28:37 25° NW 06:32:49 10° N
Okean O Rocket 4.0 06:25:56 10° NE 06:29:43 27° E 06:33:28 10° SSE
Cosmos 1805 Rocket 4.1 06:26:20 10° S 06:30:41 64° E 06:35:01 10° NNE
Okean 3 Rocket 4.5 06:28:35 10° SW 06:32:31 28° WNW 06:36:29 10° N
Sich 1 3.9 06:28:21 10° S 06:32:32 53° E 06:36:42 10° NNE
H-2A R/B 2.5 06:29:06 10° S 06:33:10 42° W 06:37:21 10° NNW
Cosmos 2026 Rocket 4.4 06:27:14 10° S 06:33:31 70° E 06:39:47 10° NNE
ATLAS 3B R/B 3.6 06:29:04 10° SSW 06:35:24 54° ESE 06:42:03 10° NE
ADEOS 4.0 06:32:59 10° N 06:37:50 39° WNW 06:42:39 10° SW
Cosmos 1174 4.3 06:35:47 10° SSW 06:38:40 47° ESE 06:41:44 10° NE
Cosmos 158 Rocket 4.0 06:33:54 10° NNW 06:39:00 77° WSW 06:44:13 10° SSE
ATLAS 5 CENTAUR R/B 2.4 06:35:23 10° SSW 06:39:08 51° SE 06:43:24 10° NE
Cosmos 1500 4.2 06:35:28 10° S 06:39:10 51° E 06:42:52 10° NNE
Cosmos 1515 3.8 06:41:00 10° NNW 06:44:43 53° W 06:48:25 10° S
Meteor PRIRODA 4.4 06:42:07 10° N 06:45:19 30° WNW 06:48:29 10° SW
Okean 1 3.3 06:41:43 10° N 06:45:43 87° E 06:49:39 10° S
Cosmos 1354 Rocket 4.3 06:41:09 10° SW 06:46:14 47° WNW 06:51:24 10° NNE
CZ-2C R/B 3.2 06:41:43 10° N 06:46:16 43° WNW 06:50:57 10° SW
Meteor 1-31 Rocket 4.4 06:45:02 10° NNW 06:47:15 15° WNW 06:49:27 10° W
Meteor 1-18 Rocket 4.5 06:45:57 10° N 06:51:53 82° ENE 06:57:39 10° SSE
USA 238 DEB 4.3 06:49:30 10° W 06:55:39 37° NNW 07:02:10 10° NE
USA 238 4.3 06:49:35 10° W 06:55:44 37° NNW 07:02:16 10° NE
OPS 6432 4.1 06:55:01 10° NW 06:57:57 86° NE 07:01:16 10° SE
FALCON 9 DEB 3.3 06:54:48 10° W 06:58:09 57° N 07:01:31 10° ENE
Cosmos 2297 Rocket 2.5 06:53:19 10° NNW 06:59:00 71° ENE 07:04:40 10° SE
SMAP 3.2 06:55:00 10° N 06:59:31 52° WNW 07:04:02 10° SW
FengYun 1-2 T 4.4 06:57:23 10° N 07:02:42 51° WNW 07:07:58 10° SW
